Regional Weather Roundup
Issued by NWS

Home | Current Version | Previous Version | Text Only | Print | Product List | Glossary Off
Versions: 1 2 3 4 5 6 7 8 9 10 11 12 13 14 15 16 17 18 19 20 21 22 23 24 25 26 27 28

000
ASUS45 KSLC 220210
RWRUT

UTAH REGIONAL WEATHER ROUNDUP
NATIONAL WEATHER SERVICE SALT LAKE CITY UT
800 PM MDT SUN MAY 21 2017

UTZ001>011-023>025-220300-

NORTHERN UTAH

CITY           SKY/WX    TMP DP  RH WIND       PRES   REMARKS
BRIGHAM CITY   PTCLDY    65  47  53 S7        30.19R
HILL AFB       CLEAR     60  46  58 W6        30.20R
LOGAN          PTCLDY    61  45  55 N7        30.18R
OGDEN          CLEAR     61  46  57 NW6       30.19R
SALT LAKE CITY PTCLDY    63  47  55 W12       30.18R
TOOELE VALLEY  CLEAR     59  46  63 CALM      30.20S
WENDOVER       CLEAR     68  40  35 E10       30.19R
WEST JORDAN    CLEAR     63  52  68 NW8       30.20S

$$

UTZ011>015-024>027-220300-

CENTRAL/NORTHEAST UTAH

CITY           SKY/WX    TMP DP  RH WIND       PRES   REMARKS
PROVO AIRPORT  PTCLDY    60  43  53 SW3       30.20R
MOAB/CANYONLAN LGT RAIN  57  43  59 E14G24    30.14R
DELTA          CLEAR     64  34  32 N8        30.16S
PRICE          CLEAR     53  43  68 E5        30.20S
ROOSEVELT      CLEAR     57  39  51 NW6       30.21R
VERNAL         CLOUDY    57  38  48 N10       30.20R

$$

UTZ013>016-019>022-027-220300-

SOUTHERN UTAH

CITY           SKY/WX    TMP DP  RH WIND       PRES   REMARKS
BRYCE CANYON   PTCLDY    54  33  45 W10       30.26S
CEDAR CITY     PTCLDY    65  35  33 NE8       30.15S
MILFORD        CLEAR     69  35  28 NE15      30.13R
ST GEORGE      MOCLDY    80  39  23 NE21G26   29.97R
HANKSVILLE     CLEAR     64  37  36 NE10      30.16S
BLANDING       MOCLDY    62  34  34 NW5       30.23R

$$

REGIONAL REPORTS     COLORADO/ARIZONA

CITY           SKY/WX    TMP DP  RH WIND       PRES   REMARKS
CRAIG, CO      CLOUDY    51  38  60 N9        30.24R
GRAND JUNCTION CLOUDY    61  39  44 NW8       30.16R
RIFLE, CO      CLOUDY    59  36  42 NW24G32   30.18R
MONTROSE, CO   CLOUDY    60  36  40 NW16G32   30.20R
CORTEZ, CO     PTCLDY    61  35  37 N21G33    30.16R
COLORADO CITY    N/A     75  34  22 N12G22    30.13R
PAGE, AZ       CLOUDY    76  31  19 N10G24    30.06R
GRAND CANYON   PTCLDY    65  26  23 CALM      30.19R
KINGMAN, AZ    CLEAR     88  26  10 NW10      29.96R
FLAGSTAFF, AZ  PTCLDY    67  19  16 N5        30.19R

$$

REGIONAL REPORTS    NEVADA/IDAHO/WYOMING

CITY           SKY/WX    TMP DP  RH WIND       PRES   REMARKS
LAS VEGAS, NV  MOCLDY    94  17   6 W10       29.84S
ELY, NY        CLEAR     65  30  27 N18G25    30.20R
ELKO, NV       CLEAR     69  35  28 E8        30.18S
POCATELLO, ID  PTCLDY    67  34  29 NE6       30.18S
BURLEY, ID     CLEAR     66  45  46 W5        30.17S
FORT BRIDGER,  CLOUDY    56  34  43 N3        30.29R
EVANSTON, WY   CLOUDY    50  37  61 N12       30.27R
ROCK SPRINGS,  LGT RAIN  44  38  79 NE14      30.28R
KEMMERER, WY     N/A     52  32  46 NW9       30.26S

$$




USA.gov is the U.S. government's official web portal to all federal, state and local government web resources and services.